VE3DVC Weather Reports


Display with metric or nautical units.
time (UTC)temp
F
wind
direction
speed
MPH
gust
MPH
rain 1hr
in
rain 24hr
in
rain mn
in
humidity
%
barometer
mb
20260902013918 75 0 0.0 0.0 0.00 0.00 0.00 92 1014.3
20260902012719 75 0 0.0 0.0 0.00 0.00 0.00 92 1014.3
20260902011518 75 0 0.0 0.0 0.00 0.00 0.00 92 1014.1
20260902010319 76 0 0.0 0.0 0.00 0.00 0.00 92 1014.2
20260902005118 76 0 0.0 0.0 0.00 0.00 0.00 92 1013.9
20260902003918 76 0 0.0 0.0 0.00 0.00 0.00 91 1013.9
20260902002719 76 0 0.0 0.0 0.00 0.00 0.00 91 1013.9
20260902001518 77 0 0.0 0.0 0.00 0.00 0.00 91 1013.8
20260902000322 77 0 0.0 0.0 0.00 0.00 0.00 90 1013.9
20260901235118 78 0 0.0 0.0 0.00 0.00 0.00 90 1013.9
20260901232015 78 0 0.0 1.0 0.00 0.00 0.00 89 1014.1
20260901230816 79 0 0.0 1.0 0.00 0.00 0.00 88 1014.2
20260901225616 79 0 0.0 1.0 0.00 0.00 0.00 87 1014.2
20260901224415 80 0 0.0 1.0 0.00 0.00 0.00 87 1014.3
20260901223215 80 0 0.0 3.0 0.00 0.00 0.00 86 1014.3
20260901222016 81 0 0.0 1.0 0.00 0.00 0.00 86 1014.4
20260901220816 82 0 0.0 1.0 0.00 0.00 0.00 86 1014.4
20260901215618 82 0 0.0 2.0 0.00 0.00 0.00 87 1014.4
20260901214416 82 0 0.0 1.0 0.00 0.00 0.00 88 1014.3
20260901213216 82 0 0.0 1.0 0.00 0.00 0.00 88 1014.1
20260901212015 83 0 0.0 1.0 0.00 0.00 0.00 88 1014.1
20260901210815 83 0 0.0 0.0 0.00 0.00 0.00 88 1014.0
20260901205616 83 0 0.0 0.0 0.00 0.00 0.00 86 1014.0
20260901204416 83 0 0.0 0.0 0.00 0.00 0.00 84 1014.0
20260901203216 84 0 0.0 1.0 0.00 0.00 0.00 84 1014.0
20260901202016 84 0 0.0 2.0 0.00 0.00 0.00 84 1014.0
20260901200233 84 0 0.0 0.0 0.00 0.00 0.00 84 1014.0
20260901195033 84 0 0.0 1.0 0.00 0.00 0.00 84 1014.1
20260901193832 85 0 0.0 2.0 0.00 0.00 0.00 83 1014.1
20260901192633 85 0 0.0 2.0 0.00 0.00 0.00 81 1014.3
20260901191433 85 0 0.0 1.0 0.00 0.00 0.00 82 1014.4
20260901190233 85 0 0.0 2.0 0.00 0.00 0.00 79 1014.3
20260901185033 85 0 0.0 3.0 0.00 0.00 0.00 80 1014.5
20260901183833 85 0 0.0 2.0 0.00 0.00 0.00 81 1014.5
20260901182633 85 0 0.0 2.0 0.00 0.00 0.00 82 1014.3
20260901181433 84 0 0.0 3.0 0.00 0.00 0.00 83 1014.4
20260901175647 84 0 0.0 3.0 0.00 0.00 0.00 84 1014.4
20260901174446 84 0 0.0 3.0 0.00 0.00 0.00 85 1014.3
20260901173247 83 0 0.0 1.0 0.00 0.00 0.00 88 1014.2
20260901172046 83 0 0.0 3.0 0.00 0.00 0.00 88 1014.2
20260901162023 80 0 0.0 1.0 0.00 0.00 0.00 92 1014.3
20260901155623 78 0 0.0 2.0 0.00 0.00 0.00 91 1014.4
20260901154423 78 0 0.0 2.0 0.00 0.00 0.00 90 1014.5
20260901153223 77 0 0.0 1.0 0.00 0.00 0.00 90 1014.3
20260901152023 76 0 0.0 2.0 0.00 0.00 0.00 90 1014.4
20260901150824 75 0 0.0 1.0 0.00 0.00 0.00 90 1014.4
20260901145623 75 0 0.0 0.0 0.00 0.00 0.00 90 1014.4
20260901144424 75 0 0.0 1.0 0.00 0.00 0.00 90 1014.4
20260901143223 75 0 0.0 1.0 0.00 0.00 0.00 90 1014.3
20260901141214 74 0 0.0 0.0 0.00 0.00 0.00 91 1014.3
20260901140014 74 0 0.0 0.0 0.00 0.00 0.00 90 1014.3
20260901134814 74 0 0.0 0.0 0.00 0.00 0.00 91 1014.2
20260901133615 73 0 0.0 0.0 0.00 0.00 0.00 90 1014.4
20260901132415 73 0 0.0 0.0 0.00 0.00 0.00 90 1014.5
20260901131215 73 0 0.0 0.0 0.00 0.00 0.00 91 1014.7
20260901130015 73 0 0.0 1.0 0.00 0.00 0.00 90 1014.7
20260901124815 72 0 0.0 1.0 0.00 0.00 0.00 91 1014.6
20260901123147 72 0 0.0 0.0 0.00 0.00 0.00 90 1014.7
20260901121948 72 0 0.0 0.0 0.00 0.00 0.00 90 1014.6
20260901115947 71 0 0.0 0.0 0.00 0.00 0.00 91 1014.6
20260901114747 71 0 0.0 0.0 0.00 0.00 0.00 91 1014.4
20260901113547 71 0 0.0 0.0 0.00 0.00 0.00 91 1014.2
20260901112347 71 0 0.0 0.0 0.00 0.00 0.00 90 1014.1
20260901111147 71 0 0.0 0.0 0.00 0.00 0.00 91 1014.0
20260901105315 71 0 0.0 0.0 0.00 0.00 0.00 90 1013.8
20260901104114 71 0 0.0 0.0 0.00 0.00 0.00 90 1013.7
20260901102915 71 0 0.0 0.0 0.00 0.00 0.00 90 1013.6
20260901101338 72 0 0.0 0.0 0.00 0.00 0.00 90 1013.6
20260901100137 72 0 0.0 0.0 0.00 0.00 0.00 90 1013.7
20260901093514 71 0 0.0 0.0 0.00 0.00 0.00 91 1013.5
20260901092315 71 0 0.0 2.0 0.00 0.00 0.00 90 1013.5
20260901091114 71 0 0.0 0.0 0.00 0.00 0.00 90 1013.3
20260901085914 71 0 0.0 1.0 0.00 0.00 0.00 90 1013.4
20260901084714 71 0 0.0 1.0 0.00 0.00 0.00 91 1013.4
20260901083514 70 0 0.0 2.0 0.00 0.00 0.00 90 1013.3
20260901082314 70 0 0.0 2.0 0.00 0.00 0.00 91 1013.3
20260901081114 70 0 0.0 1.0 0.00 0.00 0.00 91 1013.3
20260901075914 70 0 0.0 0.0 0.00 0.00 0.00 91 1013.3
20260901073514 70 0 0.0 0.0 0.00 0.00 0.00 90 1013.3
20260901072314 70 0 0.0 0.0 0.00 0.00 0.00 90 1013.4
20260901070513 70 0 0.0 0.0 0.00 0.00 0.00 90 1013.5
20260901065314 70 0 0.0 1.0 0.00 0.00 0.00 90 1013.7
20260901064113 70 0 0.0 0.0 0.00 0.00 0.00 90 1014.0
20260901062914 70 0 0.0 3.0 0.00 0.00 0.00 90 1014.1
20260901061713 70 0 0.0 0.0 0.00 0.00 0.00 90 1014.1
20260901060513 70 0 0.0 0.0 0.00 0.00 0.00 90 1014.2
20260901055313 70 0 0.0 0.0 0.00 0.00 0.00 90 1014.4
20260901054113 71 0 0.0 0.0 0.00 0.00 0.00 91 1014.4
20260901052232 71 0 0.0 0.0 0.00 0.00 0.00 91 1014.6
20260901051032 71 0 0.0 0.0 0.00 0.00 0.00 91 1014.8
20260901045832 70 0 0.0 0.0 0.00 0.00 0.00 90 1015.0
20260901044633 71 0 0.0 0.0 0.00 0.00 0.00 91 1015.2
20260901043432 71 0 0.0 0.0 0.00 0.00 0.00 91 1015.2
20260901042232 71 0 0.0 0.0 0.00 0.00 0.00 91 1015.1
20260901041032 71 0 0.0 0.0 0.00 0.00 0.00 91 1015.3
20260901035832 71 0 0.0 0.0 0.00 0.00 0.00 91 1015.4
20260901034632 70 0 0.0 0.0 0.00 0.00 0.00 91 1015.4
20260901033433 70 0 0.0 0.0 0.00 0.00 0.00 90 1015.3
20260901031133 70 0 0.0 0.0 0.00 0.00 0.00 90 1015.2
20260901025934 70 0 0.0 0.0 0.00 0.00 0.00 90 1015.5
20260901024733 70 0 0.0 0.0 0.00 0.00 0.00 90 1015.6
20260901023535 70 0 0.0 0.0 0.00 0.00 0.00 90 1015.8
20260901022334 70 0 0.0 0.0 0.00 0.00 0.00 90 1015.9
20260901021133 71 0 0.0 0.0 0.00 0.00 0.00 91 1016.0
20260901015934 71 0 0.0 0.0 0.00 0.00 0.00 91 1016.0
20260901014733 71 0 0.0 0.0 0.00 0.00 0.00 91 1015.8